User: anonymous   Login
Location: Unspecified
(33.2407°S, 0.0000°E)
Time: 21:54:49
(UTC+00:00)
Language:

BEESAT - Orbit

View from above orbital plane
View from above orbital plane
View from above satellite
View from above satellite

Ground track
Ground track

The orbit data is extracted from the following two-line orbital elements,

1 35933U 09051C   19196.05082589  .00000074  00000-0  27661-4 0  9998
2 35933  98.5926   4.5680 0007106  97.3520 262.8485 14.56380348520720
Epoch (UTC): 15 July 2019 01:13:11
Eccentricity: 0.0007106
inclination: 98.5926°
perigee height: 700 km
apogee height: 710 km
right ascension of ascending node: 4.5680°
argument of perigee: 97.3520°
revolutions per day: 14.56380348
mean anomaly at epoch: 262.8485°
orbit number at epoch: 52072

The dashed part of the orbit path shows where the satellite is in the earth's shadow,  

DLR